Satellite-Ground Cal/Val Site Overpasses Predictions

Prediction of Satellite NPP Overpassing Cal/Val Site: Antarctic Dome C

Ground Cal/Val Site Location: Latitude: -75.10, Longitude: 123.35; Satellite-Ground Site NADIR distance within 100 km.

Table of predicted overpasses for the next 14.0 days since TLE Epoch: 12/13/2014
Interval Starting Time Ending Time Minimum Distance Time Minimum Distance (km)
1 12/13/2014 14:50:28 12/13/2014 14:50:52 12/13/2014 14:50:40 54.35
2 12/14/2014 07:52:08 12/14/2014 07:52:26 12/14/2014 07:52:17 78.06
3 12/15/2014 07:33:13 12/15/2014 07:33:41 12/15/2014 07:33:27 29.72
4 12/17/2014 15:15:36 12/17/2014 15:15:46 12/17/2014 15:15:41 92.69
5 12/18/2014 14:56:35 12/18/2014 14:57:04 12/18/2014 14:56:49 18.67
6 12/20/2014 07:39:22 12/20/2014 07:39:51 12/20/2014 07:39:36 7.19
7 12/23/2014 15:02:45 12/23/2014 15:03:13 12/23/2014 15:02:59 17.76
8 12/24/2014 14:44:02 12/24/2014 14:44:14 12/24/2014 14:44:08 89.32
9 12/25/2014 07:45:33 12/25/2014 07:45:59 12/25/2014 07:45:46 42.83


NCC Satellite Cal/Val Overpasses Prediction Service
